SITRO-AIS 26

Last updated on Wed Nov 05 2025 00:03:48 GMT+0000 (Coordinated Universal Time)

1 59067U 24039S 25308.59708976 .00004451 00000+0 36537-3 0 9994 2 59067 95.3931 80.8919 0152439 33.1618 327.9048 14.90755830 91229
UTC large
Height (km)
Speed (km/s)
/
Latitude / Longitude
Inclination (degrees)
Orbital Period (minutes)
Azimuth
Elevation
Range (km)
Doppler Factor

Next 0 passes for location: London (51.5072 / 0.1276)

Sorry there are no passes over London.